Location: Kershaw
(34.5481°N, 80.5823°W)
Time: 17:51:15
(UTC+00:00)

Transit 2A - Pass Details

Date: 08 October 2022
Orbit: 598 x 959 km, 66.7° (Epoch: 06 December)

Event Time Altitude Azimuth Distance (km) Brightness Sun altitude
Rises 13:12:35 0° 317° (NW) 3,065 8.6 21.0°
Reaches altitude 10° 13:15:10 10° 304° (NW) 2,202 7.9 21.5°
Maximum altitude 13:19:13 25° 250° (WSW) 1,507 7.3 22.3°
Drops below altitude 10° 13:23:35 10° 197° (SSW) 2,388 8.7 23.1°
Sets 13:26:31 0° 185° (S) 3,383 9.6 23.6°
